Regional Weather Roundup
Issued by NWS Pendleton, OR

Home | Current Version | Previous Version | Text Only | Print | Product List | Glossary On
Versions: 1 2 3 4 5 6 7 8 9 10 11 12 13 14 15 16 17 18 19 20 21 22 23 24 25 26 27 28 29 30 31 32 33 34 35 36 37 38 39 40 41 42 43 44 45 46 47 48 49 50
000
ASUS46 KPDT 260925
RWRPDT
PENDLETON REGIONAL WEATHER ROUNDUP
NATIONAL WEATHER SERVICE PENDLETON OREGON
200 AM PDT SUN APR 26 2015

NOTE: FAIR INDICATES FEW OR NO CLOUDS BELOW 12,000 FEET WITH NO
SIGNIFICANT WEATHER AND/OR OBSTRUCTIONS TO VISIBILITY.

# INDICATES UNOFFICIAL STATION AND DATA

WAZ520-261010-
EAST SLOPES OF WASHINGTON CASCADES

CITY            SKY/WX      TMP DP  RH  WIND    PRES   REMARKS
#BULLFROG 2SW   N/A         32  31  96  S2      27.65R
#BUMPING DAM    N/A         29  N/A N/A W3      N/A
#CLE ELUM HS    N/A         30  27  88  CALM    30.00S
#CLE ELUM LAKE  N/A         32  27  82  CALM    30.07R
#CLIFFDEL 2NW   N/A         30  28  92  CALM    N/A
#GLENWOOD       N/A         25  22  88  CALM    30.10R
#MANASTASH CYN  N/A         31  21  66  CALM    30.00R
#NELSON         N/A         31  29  92  CALM    30.11R
#NELSON 3SW     N/A         30  28  92  CALM    30.31R
#NILE           N/A         29  26  88  CALM    29.34R
#RONALD 2NW     N/A         33  16  49  NE1     29.92R
#SNOWDEN        N/A         29  19  66  CALM    N/A
#TEANAWAY 4NE   N/A         30  26  85  NW2     N/A
#TROUT LAKE 1NE N/A         31  28  88  CALM    30.11R
$$

WAZ521-261010-
SIMCOE HIGHLANDS

CITY            SKY/WX      TMP DP  RH  WIND    PRES   REMARKS
#BICKLETON HS   N/A         32  17  53  W3      N/A
#CENTERVILLE 4W N/A         39  31  73  NW6     29.80R
#CENTERVILLE 1SWN/A         30  24  78  CALM    30.06R
#GOLDENDALE     N/A         33  26  75  E2      N/A
#GOLDENDALE 1NE N/A         31  16  53  N3      N/A
#GOODNOE HILLS  N/A         40  30  67  NW5     N/A
#LYLE 6NE       N/A         41  33  73  CALM    30.06R
$$

WAZ026-261010-
KITTITAS VALLEY

CITY            SKY/WX      TMP DP  RH  WIND    PRES   REMARKS
ELLENSBURG AP   CLEAR       39  28  64  NW10    30.03R
YTC-OPS AREA    CLEAR       35  28  75  W22G28  29.98R WCI 23
#ELLENSBURG CWU N/A         38  30  73  CALM    30.01R
#ELLENSBURG 3NE N/A         37  29  72  N5      30.04R
#KITTITAS 3S    N/A         31  27  85  CALM    30.06R
#THORP 6N       N/A         33  27  78  N7      30.10R
$$

WAZ027-261010-
YAKIMA VALLEY

CITY            SKY/WX      TMP DP  RH  WIND    PRES   REMARKS
SUNNYSIDE AP    CLEAR       34  27  75  SE3     30.06R
YAKIMA AIRPORT  CLEAR       37  26  64  CALM    30.07R
#DONALD 2NE     N/A         40  24  52  CALM    28.90R
#GRANDVIEW      N/A         40  30  67  CALM    30.08R
#MABTON         N/A         41  30  65  CALM    30.06R
#NACHES 2SW     N/A         40  31  70  W6      30.03R
#OUTLOOK DOT    N/A         N/A N/A N/A E2      N/A
#SELAH 8E       N/A         28  22  78  E6      N/A
#TERRACE HTS    N/A         38  28  67  CALM    30.03R
#WAPATO 4NE     N/A         40  24  52  CALM    28.90R
#WEST VALLEY    N/A         41  30  65  CALM    30.05R
#W YAKIMA       N/A         42  30  62  NW1     30.06R
#WHITE SWAN 5E  N/A         31  26  81  CALM    30.08R
$$

WAZ028-261010-
LOWER COLUMBIA BASIN...WASHINGTON

CITY            SKY/WX      TMP DP  RH  WIND    PRES   REMARKS
PASCO           CLEAR       39  31  73  CALM    30.07R
PROSSER AWOS    N/A         37  30  75  SW6     30.09R
RICHLAND AWOS   CLEAR       41  28  59  CALM    30.06R
#BASIN CITY 5SW N/A         39  33  79  CALM    30.04R
#BENTON CITY    N/A         47  27  45  W7      29.96R
#CONNELL 5N     N/A         33  29  85  CALM    30.04R
#CONNELL 5NW    N/A         34  29  82  N1      30.01R
#ELTOPIA        N/A         36  31  82  CALM    30.02R
#ELTOPIA 6NW    N/A         41  31  67  W3      29.01R
#KAHLOTUS       N/A         38  29  70  W8      30.04R
#KENNEWICK      N/A         32  31  96  S2      27.65R
#KENNEWICK 3S   N/A         43  29  57  CALM    30.06R
#PATERSON       N/A         44  36  73  NW1     30.06R
#PROSSER        N/A         44  27  51  SW3     30.06R
#SAGEMOOR 2W    N/A         43  32  65  W6      29.89R
#TOUCHET 2S     N/A         34  30  85  E2      30.06R
#WEST PASCO     N/A         41  29  62  CALM    30.09R
$$

WAZ029-261010-
FOOTHILLS OF THE BLUES...WASHINGTON

CITY            SKY/WX      TMP DP  RH  WIND    PRES   REMARKS
WALLA WALLA AP  CLEAR       42  31  65  SE7     30.04R
#DAYTON SCHOOL  N/A         38  26  62  CALM    30.05R
#LOWDEN 2SE     N/A         35  32  89  E1      30.03R
#PLEASANT VIEW 1N/A         37  30  75  SW6     30.07R
#PRESCOTT       N/A         31  28  88  CALM    30.03R
#SUDBURY        N/A         33  N/A N/A CALM    N/A
#WHITMAN COLLEGEN/A         42  33  70  E2      30.09R
#WAITSBURG 5S   N/A         37  31  79  S3      30.15R
#WAITSBURG 8N   N/A         31  15  51  S1      29.88S
#WALLA WALLA 5E N/A         35  31  85  NE6     N/A
#WALLA WALLA U  N/A         43  34  70  CALM    30.05R
#WHITMAN MISSIONN/A         38  33  82  CALM    30.07R
$$

WAZ030-261010-
BLUE MOUNTAINS...WASHINGTON

CITY            SKY/WX      TMP DP  RH  WIND    PRES   REMARKS
#DIXIE 5SE      N/A         38  25  59  S7      29.94R
$$

ORZ009-041-WAZ024-261010-
COLUMBIA RIVER GORGE

CITY            SKY/WX      TMP DP  RH  WIND    PRES   REMARKS
HOOD RIVER AP   CLEAR       37  36  96  CALM    30.10R
THE DALLES AP   CLEAR       43  33  67  W5      30.09R
#ARLINGTON AIRPON/A         41  30  65  SW2     29.99S
#ARLINGTON HS   N/A         40  29  64  N2      30.00R
#CELILO DOT     N/A         48  32  54  S6      N/A
#MOSIER 1S      N/A         41  31  67  CALM    30.06S
#MURDOCK        N/A         46  39  76  NW3     30.11R
#RUFUS DOT      N/A         48  30  49  N8      N/A

$$

ORZ510-261010-
NORTH CENTRAL OREGON

CITY            SKY/WX      TMP DP  RH  WIND    PRES   REMARKS
#CHENOWITH 1W   N/A         41  33  73  NW17    N/A    WCI 33
#COW CYN RST AREN/A         37  37  100 SW3     N/A
#DUFUR 9E       N/A         40  32  73  W7      30.13R
#GRASS VALLEY 1SN/A         33  27  78  S6      30.12R
#KENT DOT       N/A         33  24  69  SW6     N/A
#MAUPIN SCHOOL  N/A         41  31  67  CALM    30.11R
#MORO SCHOOL    N/A         38  33  82  CALM    30.08R
#SHANIKO 5WSW   N/A         35  25  66  S2      N/A
#SHANIKO 4NW    N/A         35  28  75  W5      30.03F
#TYGH VALLEY 2NEN/A         35  29  78  CALM    30.09R
#WAPANITIA AIRPON/A         38  32  79  CALM    30.10R
#WASCO DOT      N/A         32  29  89  SE2     N/A
#WASCO AIRPORT  N/A         38  30  73  W2      N/A
#WASCO 5NE      N/A         33  28  82  CALM    30.07R
$$

ORZ511-261010-
CENTRAL OREGON

CITY            SKY/WX      TMP DP  RH  WIND    PRES   REMARKS
BEND AIRPORT    MOCLEAR     32  28  85  CALM    30.07R
MADRAS AIRPORT  CLEAR       28  27  96  S7      30.09R
PRINEVILLE AP   CLEAR       34  30  85  CALM    30.07R
REDMOND AIRPORT CLEAR       29  26  88  S5      30.07R
#BEND 1SW       N/A         29  26  88  NE1     N/A
#BEND-AWBREY    N/A         34  30  85  S5      30.12R
#BEND-KIM LN    N/A         34  29  82  SW2     30.03S
#CROOKED RVR RANN/A         34  29  82  CALM    30.10R
#CULVER         N/A         35  29  78  CALM    30.03S
#LAKE BILLY CHINN/A         36  23  59  CALM    30.17S
#POWELL BUTTE 3EN/A         31  26  81  SE1     N/A
#POWELL BUTTE   N/A         35  27  72  W3      29.69R
#PRINEVILLE 3N  N/A         28  25  88  E2      30.08R
#WARM SPRINGS   N/A         36  29  75  CALM    30.06R

$$


ORZ509-261010-
EAST SLOPES OF OREGON CASCADES

CITY            SKY/WX      TMP DP  RH  WIND    PRES   REMARKS
#BLUE BOX PASS  N/A         33  -16 11  N2      N/A
#CAMP SHERMAN   N/A         28  25  88  CALM    30.16R
#LA PINE 4NW    N/A         30  25  81  CALM    30.15S
#SISTERS AIRPOR N/A         30  29  96  N1      30.17S
#SISTERS ODOT   N/A         32  N/A N/A S2      N/A
#SISTERS 1NW    N/A         30  26  85  N5      N/A
#SISTERS 3N     N/A         28  20  71  CALM    30.10R
#SUNRIVER       N/A         29  26  88  CALM    30.00R
#TUMALO 3W      N/A         35  27  72  SW2     30.00R
#WANOGA BUTTE D N/A         29  22  75  NW3     N/A

$$

ORZ044-261010-
LOWER COLUMBIA BASIN...OREGON

CITY            SKY/WX      TMP DP  RH  WIND    PRES   REMARKS
HERMISTON       CLEAR       37  30  75  S5      30.06R
#BOARDMAN 8SW   N/A         40  30  67  W3      30.07R
#IONE SCHOOL    N/A         35  22  59  CALM    30.04R
#IRRIGON 4NW    N/A         43  34  70  SW6     N/A
#UMATILLA SCHOOLN/A         37  34  89  CALM    30.10R
#UMATILLA       N/A         42  29  60  CALM    29.98R
$$

ORZ507-261010-
NORTHERN FOOTHILLS OF THE BLUES

CITY            SKY/WX      TMP DP  RH  WIND    PRES   REMARKS
PENDLETON AIRPT CLEAR       37  30  75  SE6     30.04R
#ADAMS 3WNW     N/A         28  24  85  CALM    30.07R
#ATHENA         N/A         33  29  85  CALM    30.08R
#CAYUSE         N/A         38  32  79  CALM    30.06R
#HELIX SCHOOL   N/A         31  26  81  CALM    30.06R
#HELIX 3N       N/A         35  29  78  S7      30.00R
#HOLDMAN 6E     N/A         37  28  70  CALM    29.87R
#M-F FERNDALE   N/A         42  31  65  CALM    30.03S
#M-F GROVE ELEM N/A         37  29  72  CALM    30.03R
#M-FREEWATER 5SEN/A         40  31  70  NE3     30.04R
#PENDLETON DNTN N/A         44  23  43  CALM    30.05S
#PDT AQUATIC CTRN/A         40  24  52  CALM    30.06R
#PENDLETON 5NE  N/A         31  27  85  CALM    30.02R
#PDT SUNRIDGE   N/A         38  32  79  SE2     30.07R
#PENDLETON 7NW  N/A         33  25  72  CALM    30.04R
#PILOT ROCK     N/A         38  27  64  CALM    30.07R
#TUTUILLA       N/A         32  28  85  S2      30.06R
#UMAPINE 2E     N/A         38  33  82  CALM    30.02R
#WESTON SCHOOL  N/A         39  27  62  W1      30.03R

$$

ORZ508-261010-
SOUTHERN FOOTHILLS OF THE BLUES

CITY            SKY/WX      TMP DP  RH  WIND    PRES   REMARKS
LEXINGTON       CLEAR       39  28  64  SE7     30.08R
#AJAX           N/A         40  24  52  CALM    29.99R
#CONDON SCHOOL  N/A         35  26  69  CALM    30.01R
#CONDON 5W      N/A         36  25  64  W7      30.01R
#FOSSIL SCHOOL  N/A         29  23  78  CALM    30.04R
#HEPPNER EOC    N/A         35  27  72  CALM    30.02R
#HEPPNER 4NE    N/A         35  26  69  CALM    30.08R
#LEXINGTON 2SE  N/A         34  26  72  CALM    30.05R
#MIKKALO        N/A         40  28  62  NW2     30.05R
#RUGGS 5NE      N/A         33  24  69  S2      30.20R
#RUGGS 2SW      N/A         37  27  67  W7      30.10R

$$

ORZ502-503-261010-
BLUE MOUNTAINS

CITY            SKY/WX      TMP DP  RH  WIND    PRES   REMARKS
MEACHAM         CLEAR       28  25  88  CALM    30.02R
#BATTLE MTN DOT N/A         27  27  100 SW6     N/A
#HEPPNER 15SE   N/A         28  25  88  CALM    29.93R
#LADD CYN SMT   N/A         29  21  72  SW6     N/A
#LADD CREEK ODOTN/A         33  17  51  SW1     N/A
#LONG CREEK HS  N/A         30  28  92  CALM    30.00R
#PIKES PEAK     N/A         38  27  64  SW12    27.99S WCI 30
#TOLLGATE       N/A         29  26  88  CALM    29.91R
#TROY SCHOOL    N/A         34  31  89  CALM    29.93R
#UKIAH          N/A         24  22  92  CALM    30.14R
#WESTON 4E      N/A         35  28  75  SE2     30.01R
$$

ORZ505-261010-
JOHN DAY BASIN

CITY            SKY/WX      TMP DP  RH  WIND    PRES   REMARKS
JOHN DAY        CLEAR       34  28  78  CALM    30.05R
#JOHN DAY KJDY  N/A         34  29  82  CALM    30.14S
#DAYVILLE SCHOOLN/A         34  28  78  CALM    30.03R
#MITCHELL       N/A         30  25  81  E2      30.20R
#MONUMENT HS    N/A         33  27  78  CALM    30.07R
#MT. VERNON 5SE N/A         32  27  82  CALM    29.99R
#WINLOCK        N/A         32  24  72  CALM    30.12R
$$

ORZ506-261010-
OCHOCO AND JOHN DAY HIGHLANDS

CITY            SKY/WX      TMP DP  RH  WIND    PRES   REMARKS
#BUCK CREEK DOT N/A         34  34  100 W5      N/A
#HORSE RIDGE DO N/A         31  28  88  NE1     N/A
#KEYES SMT DOT  N/A         31  21  66  NW6     N/A
#PAULINA SCHOOL N/A         39  33  79  CALM    30.00R
#PINE MTN OBS   N/A         27  25  92  NW3     N/A
#PRAIRIE CITY   N/A         22  19  88  CALM    30.28R
#SENECA         N/A         25  N/A N/A CALM    N/A
#SENECA 9NW     N/A         25  23  92  CALM    30.09R
$$

ORZ049-261010-
GRANDE RONDE VALLEY

CITY            SKY/WX      TMP DP  RH  WIND    PRES   REMARKS
LA GRANDE       CLEAR       36  23  59  NW3     30.02R
#COVE SCHOOL    N/A         31  27  85  CALM    30.00R
#ELGIN 3N       N/A         28  21  75  CALM    30.00R
#ELGIN 1E       N/A         31  25  78  CALM    N/A
#IMBLER SCHOOL  N/A         38  30  73  CALM    30.00R
#ISLAND CITY 4N N/A         39  36  89  CALM    30.10S
#LADD CYN DOT   N/A         35  26  69  SE7     N/A
#LA GRANDE ELEM N/A         39  28  64  W12     30.04R WCI 32
#UNION 1S       N/A         31  26  81  CALM    29.99R
$$

ORZ050-261010-
WALLOWA COUNTY

CITY            SKY/WX      TMP DP  RH  WIND    PRES   REMARKS
JOSEPH AIRPORT  MOCLDY      30  28  92  CALM    30.01R
#ENTERPRISE HS  N/A         28  25  88  CALM    30.02R
#IMNAHA SCHOOL  N/A         38  36  92  S2      30.04R
#IMNAHA 10S     N/A         32  30  92  SW2     30.02R
#JOSEPH 3N      N/A         24  20  84  CALM    30.02R
#JOSEPH 3W      N/A         29  25  85  CALM    29.84R
#LOSTINE        N/A         28  26  92  CALM    29.88R
#MT HOWARD 8000 N/A         20  18  92  NW1     29.87R
#PROMISE 1S     N/A         29  26  88  CALM    30.17R
#SHEEP RDG 7000 N/A         23  20  88  CALM    30.12R
#WALLOWA SCHOOL N/A         29  26  88  CALM    31.04R



$$



USA.gov is the U.S. government's official web portal to all federal, state and local government web resources and services.